Location: Mentone
(34.5413°N, 85.5351°W)
Time: 23:12:30
(UTC-06:00)

Vanguard 2 Rocket - Visible Passes

Search period start: 17 December 2017 00:00
Search period end: 27 December 2017 00:00
Orbit: 556 x 3326 km, 32.9° (Epoch: 16 December)

Date Brightness Start Highest point End Pass type
(mag) Time Alt. Az. Time Alt. Az. Time Alt. Az.
17 Dec 10.8 01:14:23 11° SSE 01:14:23 11° SSE 01:14:48 10° SSE visible
17 Dec 10.7 03:20:10 10° SSW 03:20:10 10° SSW 03:20:11 10° SSW visible
17 Dec 8.8 16:56:55 10° SW 17:05:10 52° SSE 17:19:32 10° E visible
17 Dec 8.8 19:09:05 10° WSW 19:20:36 83° S 19:25:42 55° E visible
17 Dec 9.7 21:23:12 10° W 21:31:30 46° W 21:31:30 46° W visible
18 Dec11.000:18:05SE00:18:05SE23:37:18WNWvisible
18 Dec 10.7 02:23:53 12° S 02:23:53 12° S 02:25:03 10° S visible
18 Dec 8.7 18:09:56 10° WSW 18:19:42 76° SSE 18:29:28 29° E visible
18 Dec 9.0 20:23:18 10° W 20:35:17 78° WSW 20:35:17 78° WSW visible
18 Dec 10.5 22:38:13 10° W 22:41:05 19° W 22:41:05 19° W visible
19 Dec 8.5 17:11:09 10° WSW 17:19:22 65° SSE 17:33:16 12° E visible
19 Dec 8.8 19:23:45 10° W 19:35:16 85° S 19:39:04 62° ESE visible
19 Dec 9.8 21:37:53 10° W 21:44:52 39° W 21:44:52 39° W visible
20 Dec11.200:31:08SSE00:31:08SSE23:50:41WNWvisible
20 Dec 8.6 18:24:32 10° W 18:34:17 83° S 18:42:53 34° E visible
20 Dec 9.1 20:37:59 10° W 20:48:42 68° WSW 20:48:42 68° WSW visible
20 Dec 10.7 22:53:04 10° W 22:54:30 14° W 22:54:30 14° W visible
21 Dec 8.4 17:25:37 10° WSW 17:33:50 76° SSE 17:46:44 15° E visible
21 Dec 8.8 19:38:27 10° W 19:49:56 82° S 19:52:33 69° ESE visible
21 Dec 10.0 21:52:37 10° W 21:58:21 32° W 21:58:21 32° W visible
22 Dec 8.6 18:39:13 10° W 18:48:57 84° S 18:56:26 38° E visible
22 Dec 9.3 20:52:41 10° W 21:02:15 57° WSW 21:02:15 57° WSW visible
23 Dec 8.3 17:40:14 10° W 17:48:26 82° S 18:00:23 18° E visible
23 Dec 8.8 19:53:09 10° W 20:04:32 75° SSW 20:06:11 70° SSE visible
23 Dec 10.2 22:07:31 10° W 22:12:01 25° W 22:12:01 25° W visible
24 Dec 8.6 18:53:54 10° W 19:03:37 80° S 19:10:12 42° ESE visible
24 Dec 9.5 21:07:28 10° W 21:16:02 47° WSW 21:16:02 47° WSW visible
25 Dec 8.3 17:54:55 10° W 18:03:06 83° S 18:14:17 20° E visible
25 Dec 9.0 20:07:52 10° W 20:19:05 65° SSW 20:20:07 64° S visible
25 Dec 10.4 22:22:47 10° W 22:25:57 19° W 22:25:57 19° W visible
26 Dec 8.0 16:56:06 10° W 17:03:00 81° S 17:15:43 10° E visible
26 Dec 8.6 19:08:36 10° W 19:18:14 72° SSW 19:24:17 43° SE visible
26 Dec 9.7 21:22:26 10° W 21:30:08 37° WSW 21:30:08 37° WSW visible
